Regional Weather Roundup
Issued by NWS Cleveland, OH

Home | Current Version | Previous Version | Graphics & Text | Print | Product List | Glossary On
Versions: 1 2 3 4 5 6 7 8 9 10 11 12 13 14 15 16 17 18 19 20 21 22 23 24 25 26 27 28 29 30 31 32 33 34 35 36 37 38 39 40 41 42 43 44 45 46 47 48 49 50
000
ASUS41 KCLE 300802
RWRCLE
OHIO REGIONAL WEATHER ROUNDUP
NATIONAL WEATHER SERVICE CLEVELAND, OH
400 AM EDT MON MAY 30 2016

NOTE: "FAIR" INDICATES FEW OR NO CLOUDS BELOW 12,000 FEET WITH NO
SIGNIFICANT WEATHER AND/OR OBSTRUCTIONS TO VISIBILITY.

OHZ001>008-015>018-024>027-034-035-043-044-300900-
   NORTHWEST OHIO

CITY           SKY/WX    TMP DP  RH WIND       PRES   REMARKS
DEFIANCE       CLEAR     61  56  83 CALM      30.01S
FINDLAY        PTCLDY    62  55  77 S3        30.00S
TOLEDO EXPRESS CLEAR     58  56  93 CALM      29.99S
TOLEDO EXEC    CLEAR     64  54  69 SW3       30.00R
LIMA           CLOUDY    63  58  83 CALM      30.01F
$$

OHZ009>014-019>023-028>033-038-089-300900-
   NORTHEAST OHIO

CITY           SKY/WX    TMP DP  RH WIND       PRES   REMARKS
CLE-HOPKINS    PTCLDY    64  60  87 SW6       30.00F
CLE-LAKEFRONT  CLEAR     67  61  81 SW9       29.97S
CUY CO. ARPT   NOT AVBL
LORAIN-ELYRIA  CLEAR     62  59  90 W3        30.00S
ASHTABULA      MOCLDY    63  61  93 SW6       29.99R
AKRON-CANTON   PTCLDY    62  60  93 S3        30.00S
WOOSTER        CLEAR     61  59  93 SW6       30.01S
MANSFIELD      CLEAR     63  60  90 SW6       30.02S
YOUNGSTOWN     MOCLDY    65  62  90 S7        29.99F
$$

OHZ042-051>053-060>062-070>072-077>081-300900-
  SOUTHWEST OHIO

CITY           SKY/WX    TMP DP  RH WIND       PRES   REMARKS
CINC-COVINGTON CLOUDY    67  64  90 S6        30.04R
CINC-LUNKEN    CLOUDY    65  64  97 SW3       30.04R
HAMILTON       MOCLDY    67  64  90 CALM      30.03S
DAYTON         CLOUDY    65  62  90 NW3       30.04R
WRIGHT-PAT AFB CLEAR     63  63 100 CALM      30.02S
DAYTON GENERAL PTCLDY    65  61  87 S5        30.02S
WILMINGTON     PTCLDY    64  63  96 SW7       30.03S
$$

OHZ036-037-039>041-045>050-054>059-063>069-073>076-082>088-300900-
  CENTRAL AND SOUTHEAST OHIO

CITY           SKY/WX    TMP DP  RH WIND       PRES   REMARKS
COLUMBUS       CLOUDY    63  63 100 CALM      30.01R
OSU AIRPORT    CLOUDY    63  61  93 CALM      30.01S
BOLTON FIELD   NOT AVBL
RICKENBACK AFB NOT AVBL
NEWARK         PTCLDY    64  60  87 CALM      30.00F
MARION         CLEAR     64  60  87 CALM      30.01S
LANCASTER      CLOUDY    64  61  90 W3        30.01S
ZANESVILLE     PTCLDY    67  62  84 SW3       30.01S
NEW PHILLY     CLOUDY    65  61  87 CALM      30.01R FOG
$$




USA.gov is the U.S. government's official web portal to all federal, state and local government web resources and services.